Regional Weather Roundup
Issued by NWS Albany, NY

Home | Current Version | Previous Version | Text Only | Print | Product List | Glossary On
Versions: 1 2 3 4 5 6 7 8 9 10 11 12 13 14 15 16 17 18 19 20 21 22 23 24 25 26 27 28 29 30 31 32 33 34 35 36 37 38 39 40 41 42 43 44 45 46 47 48 49 50
000
ASUS41 KALY 300210
RWRALY

NEW YORK STATE HOURLY WEATHER ROUNDUP
NATIONAL WEATHER SERVICE ALBANY NY
1000 PM EDT FRI MAY 29 2015

NOTE: "FAIR" INDICATES FEW OR NO CLOUDS BELOW 12,000 FEET WITH NO
SIGNIFICANT WEATHER AND/OR NO OBSTRUCTIONS TO VISIBILITY.

NYZ032-033-038>043-046>054-057>066-NYZ062>081-300300-
EAST


CITY           SKY/WX    TMP DP  RH WIND       PRES   REMARKS
ALBANY         CLOUDY    75  54  47 S8        30.18R
GLENS FALLS    MOCLDY    65  57  75 CALM      30.18R
POUGHKEEPSIE   MOCLDY    72  57  59 SE3       30.21R
MONTGOMERY     MOCLDY    70  59  68 S6        30.22R
WHITE PLAINS   PTCLDY    65  58  78 CALM      30.24S
ISLIP          MOCLDY    64  60  87 S7        30.24R
NEW YORK CITY  MOCLDY    69  58  67 S6        30.24R
CENTRAL PARK   PTCLDY    67  58  72 VRB3      30.27R
$$

NYZ005>009-017-018-044>046-055-056-300300-
CENTRAL


CITY           SKY/WX    TMP DP  RH WIND       PRES   REMARKS
FULTON         MOCLDY    74  56  53 SE5       30.10S
SYRACUSE       PTCLDY    72  58  61 E5        30.11R
ROME           PTCLDY    70  57  63 E7        30.16R
ELMIRA         MOCLDY    72  62  71 S5        30.15R
BINGHAMTON     PTCLDY    71  56  58 S7        30.19S
MONTICELLO     PTCLDY    66  55  68 CALM      30.26R
$$

NYZ026>034-041>043-300300-
NORTH


CITY           SKY/WX    TMP DP  RH WIND       PRES   REMARKS
WATERTOWN      PTCLDY    70  52  52 SE6       30.08F
FORT DRUM      NOT AVBL
MASSENA        CLEAR     61  57  87 CALM      30.10F
SARANAC LAKE   PTCLDY    59  51  75 CALM      30.17R
PLATTSBURGH    MOCLDY    60  56  86 CALM      30.12R
$$

NYZ001>004-010>016-019>021-300300-
WEST


CITY           SKY/WX    TMP DP  RH WIND       PRES   REMARKS
NIAGARA FALLS  LGT RAIN  78  61  55 S17G24    30.04S
BUFFALO        MOCLDY    79  61  53 S8        30.05S
DUNKIRK        MOCLDY    75  64  68 S18       30.06S
JAMESTOWN      MOCLDY    68  63  83 S12       30.15R
WELLSVILLE     MOCLDY    73  59  61 S10G22    30.19S
ROCHESTER      PTCLDY    77  60  55 S7        30.07S
PENN YAN       CLEAR     76  59  55 S6        30.13R
$$

             KEY
       WCI = WIND CHILL INDEX
       VSB = VISIBILITY
       HX  = HEAT INDEX
$$


USA.gov is the U.S. government's official web portal to all federal, state and local government web resources and services.